Voltar ao catálogo

IRIDIUM 33 DEB

AtivoPO
NORAD 33860·DEBRIS·🇺🇸 United States

Lançado Sep 14, 1997 de Baikonur Cosmodrome

Loading…

Próximas Passagens (próximas 24 horas)

TLE

AtualizadoSource: Space-Track

Época: Sep 14, 2026, 07:18 UTC

1 33860U 97051AD  26257.30448124  .00004014  00000-0  65056-3 0  9994
2 33860  86.3760 264.8256 0011334 103.9052 315.4402 14.70976244927693

Acompanhe IRIDIUM 33 DEB em tempo real com AllMySat

Download on the App Store